カタログに戻る

STARLINK-35164

運用中通信VLEO
NORAD 65519·PAYLOAD·🇺🇸 United States

打ち上げ Sep 5, 2025 から Cape Canaveral Space Force Station

Loading…

次のパス (今後24時間)

TLE

最新Source: CelesTrak SupGP

元期: Sep 14, 2026, 21:03 UTC

1 65519C 25198AD  26257.87756944 -.00042652  00000+0 -12604-2 0  2575
2 65519  53.1565 108.2662 0001252  92.4625 191.1448 15.34407067    12

AllMySatでSTARLINK-35164をリアルタイム追跡

Download on the App Store